Simultaneous Nadir Overpasses (SNOs) Predictions

Prediction of SNOs between AQUA and GOES-15 Satellite Orbit:

Table of predicted SNOs for the next 14.0 days since TLE Epoch: 11/23/2024
Index Date Time (AQUA) AQUA Lat,Lon GOES-15 Lat,Lon Distance(km) Time Diff (sec)
1 11/24/2024 22:07:01 -0.51, 63.97 -0.01, 61.58 271.31 80
2 11/25/2024 10:26:47 -0.48, 59.19 0.03, 61.66 281.11 80
3 11/27/2024 10:08:14 0.48, 63.73 0.02, 61.63 238.57 80
4 11/27/2024 22:27:51 0.52, 58.98 -0.03, 61.53 290.49 80
5 11/29/2024 22:09:16 -0.44, 63.53 -0.02, 61.52 228.71 80
6 11/30/2024 10:29:00 -0.55, 58.75 0.04, 61.61 324.82 80
7 12/02/2024 10:10:23 0.39, 63.31 0.02, 61.60 194.77 80
8 12/02/2024 22:30:00 0.56, 58.56 -0.04, 61.49 333.22 80
9 12/04/2024 22:11:21 -0.36, 63.13 -0.03, 61.49 185.79 80
10 12/05/2024 10:31:04 -0.68, 58.37 0.04, 61.60 368.75 80
